{"data":{"norad_id":62392,"epoch":"2026-05-25T04:06:31.084704Z","epoch_age_seconds":70290,"freshness":"FRESH","line1":"1 62392U 24247R   26145.17119311  .00006364  00000+0  23387-3 0  9997","line2":"2 62392  45.0012  59.0021 0002049 204.1988 155.8800 15.28738672 79439","mean_motion":15.28738672,"eccentricity":0.0002049,"inclination_deg":45.0012,"raan_deg":59.0021,"arg_perigee_deg":204.1988,"mean_anomaly_deg":155.88,"bstar":0.00023387,"rev_number":7943,"period_min":94.195301419051,"perigee_km":478.17666018638,"apogee_km":480.98695335339,"semimajor_km":6857.7188067699,"source":"CELESTRAK","updated_at":"2026-05-25T13:38:02.947929Z"}}